SONATE

Last updated on Thu Nov 21 2024 00:03:40 GMT+0000 (Coordinated Universal Time)

1 44400U 19038Q 24325.56879295 .00051655 00000+0 99489-3 0 9993 2 44400 97.7139 328.0377 0009187 265.5702 94.4497 15.47672056298146
UTC large
Height (km)
Speed (km/s)
/
Latitude / Longitude
Inclination (degrees)
Orbital Period (minutes)
Azimuth
Elevation
Range (km)
Doppler Factor

Next 0 passes for location: London (51.5072 / 0.1276)

Sorry there are no passes over London.